Weather in Tolvuya

Russia / Republic of Karelia     62°30′34″N   35°16′58″E
temp.,
°C
wind,
m/s
gust,
m/s
humid.,
%
clouds,
%
prec.,
mm/h
press.,
hPa
HPBL,
m
2 july, sat
sat200:00+16ssw11510 0.0 102111
03:00+15ese115466 0.0 102111
06:00+17ese225711 0.0 102165
09:00+21e12527 0.0 1021310
12:00+24nne33535 0.0 1020612
15:00+26n124445 0.0 1019629
18:00+24ne1153100 0.0 1018115
21:00+18nnw3681100 0.6 1019168
3 july, sun
sun300:00+16ese2288100 0.1 101814
03:00+16wnw008899 0.1 101911
06:00+17sse2380100 0.0 101884
09:00+21sse235984 0.0 1018319
12:00+23sse225198 0.0 1017647
15:00+25s2248100 0.0 1017624
18:00+24s2362100 0.2 1015147
21:00+20ssw227693 0.7 101521
4 july, mon
mon400:00+17sw018551 0.4 101511
03:00+16s2288100 0.5 101519
06:00+17sse119324 1.1 101645
09:00+22nnw11735 1.1 1015358
12:00+25ne125628 0.0 10151350
15:00+25sse125363 1.9 10141405
18:00+24w346329 2.4 1013564
21:00+20ssw008610 3.6 101311
5 july, tue
tue500:00+18sse129048 0.1 101327
03:00+16se229880 1.1 101237
06:00+17s239792 0.1 1012104
09:00+19s248227 0.3 1011283
12:00+24s355489 0.0 1010810
15:00+22s5864100 0.4 1009494
18:00+21ssw367775 0.6 1008360
21:00+19s258594 1.8 1008127
6 july, wed
wed600:00+17sw399265 0.1 1008168
03:00+15sw3791100 0.1 1008147
06:00+16sw267896 0.0 1008211
09:00+19sw47540 0.0 1009717
12:00+21sw57410 0.0 10091443
15:00+22sw573836 0.0 10081859
18:00+20sw4850100 0.0 1008525
21:00+17sw38650 0.0 1008254